Hot Springs, VA

2:53 AM EDT on October 17, 2017 (GMT -0400)
Ingalls

Weather History for KHSP - January, 2013

Change the Weather History Date:

Monday, January 7, 2013

  Actual Average Record
Temperature  
Mean Temperature 27 °F -  
Max Temperature 35 °F 34 °F 60 °F (1998)
Min Temperature 19 °F 21 °F -14 °F (2014)
Degree Days  
Heating Degree Days 38    
Moisture  
Dew Point 21 °F    
Average Humidity 79    
Maximum Humidity 100    
Minimum Humidity 56    
Precipitation  
Precipitation 0.00 in - - ()
Sea Level Pressure  
Sea Level Pressure 30.27 in    
Wind  
Wind Speed 13 mph (WSW)    
Max Wind Speed 21 mph    
Max Gust Speed 33 mph    
Averages and records for this station are not official NWS values.
T = Trace of Precipitation, MM = Missing Value Source: NWS Daily Summary

Daily Weather History Graph

Daily Weather History Graph

Search for Another Location

Airport or City:

Trip Planner

Search our weather history database for the weather conditions in past years. The results will help you decide how hot, cold, wet, or windy it might be!

Date:

Astronomy

Jan. 07, 2013 Rise Set
Actual Time 7:35 AM EST 5:16 PM EST
Civil Twilight 7:06 AM EST 5:45 PM EST
Nautical Twilight 6:33 AM EST 6:18 PM EST
Astronomical Twilight 6:01 AM EST 6:49 PM EST
Moon 2:58 AM EST (1/7) 1:25 PM EST (1/7)
Length of Visible Light 10h 38m
Length of Day
9h 40m
Waning Crescent, 23% of the Moon is Illuminated
Jan 7
Waning Crescent
Jan 11
New
Jan 18
First Quarter
Jan 26
Full
Feb 3
Last Quarter

Hourly Weather History & Observations

Time (EST) Temp. Windchill Dew Point Humidity Pressure Visibility Wind Dir Wind Speed Gust Speed Precip Events Conditions
12:35 AM 28.4 °F 17.0 °F 24.8 °F 86% 30.10 in - WNW 15.0 mph 26.5 mph N/A   Unknown
12:55 AM 26.6 °F 13.1 °F 24.8 °F 93% 30.10 in - West 19.6 mph 26.5 mph N/A   Overcast
1:15 AM 26.6 °F 15.2 °F 24.8 °F 93% 30.11 in - WNW 13.8 mph - N/A   Overcast
1:35 AM 26.6 °F 14.3 °F 24.8 °F 93% 30.12 in - West 16.1 mph 24.2 mph N/A   Overcast
1:55 AM 26.6 °F 13.4 °F 24.8 °F 93% 30.12 in - West 18.4 mph 27.6 mph N/A   Overcast
2:15 AM 26.6 °F 14.7 °F 24.8 °F 93% 30.13 in - WNW 15.0 mph 24.2 mph N/A   Overcast
2:35 AM 26.6 °F 14.3 °F 24.8 °F 93% 30.14 in - WNW 16.1 mph 21.9 mph N/A   Overcast
2:55 AM 24.8 °F 11.5 °F 23.0 °F 93% 30.14 in - West 17.3 mph 23.0 mph N/A   Overcast
3:15 AM 24.8 °F 11.5 °F 21.2 °F 86% 30.14 in - WNW 17.3 mph 25.3 mph N/A   Overcast
3:35 AM 24.8 °F 11.5 °F 21.2 °F 86% 30.15 in - West 17.3 mph 21.9 mph N/A   Overcast
3:55 AM 24.8 °F 11.5 °F 21.2 °F 86% 30.16 in - West 17.3 mph - N/A   Overcast
4:15 AM 23.0 °F 10.6 °F 21.2 °F 93% 30.16 in - WNW 13.8 mph 21.9 mph N/A   Overcast
4:35 AM 23.0 °F 8.3 °F 21.2 °F 93% 30.16 in - WNW 19.6 mph - N/A   Overcast
4:55 AM 21.2 °F 6.4 °F 21.2 °F 100% 30.17 in - West 18.4 mph - N/A   Overcast
5:15 AM 21.2 °F 6.4 °F 21.2 °F 100% 30.18 in - WNW 18.4 mph - N/A   Overcast
5:35 AM 21.2 °F 6.4 °F 21.2 °F 100% 30.18 in - WNW 18.4 mph - N/A   Overcast
5:55 AM 21.2 °F 6.8 °F 19.4 °F 93% 30.19 in - WNW 17.3 mph 21.9 mph N/A   Overcast
6:15 AM 21.2 °F 7.8 °F 19.4 °F 93% 30.21 in - WNW 15.0 mph - N/A   Overcast
6:35 AM 19.4 °F 4.5 °F 19.4 °F 100% 30.22 in - WNW 17.3 mph - N/A   Overcast
6:55 AM 19.4 °F 4.1 °F 19.4 °F 100% 30.23 in - WNW 18.4 mph - N/A   Overcast
7:35 AM 19.4 °F 3.2 °F 19.4 °F 100% 30.25 in - WNW 20.7 mph - N/A   Overcast
7:55 AM 19.4 °F 4.1 °F 19.4 °F 100% 30.26 in - WNW 18.4 mph - N/A   Overcast
8:15 AM 19.4 °F 4.1 °F 19.4 °F 100% 30.28 in - WNW 18.4 mph 25.3 mph N/A   Unknown
8:35 AM - - - N/A% 30.29 in - WNW 13.8 mph - N/A   Unknown
8:55 AM - - - N/A% 30.30 in - WNW 13.8 mph 33.4 mph N/A   Unknown
9:15 AM 21.2 °F 6.8 °F 19.4 °F 93% 30.31 in - WNW 17.3 mph 28.8 mph N/A   Mostly Cloudy
9:35 AM 21.2 °F 8.9 °F 19.4 °F 93% 30.32 in - West 12.7 mph 25.3 mph N/A   Unknown
9:55 AM 21.2 °F 9.5 °F 19.4 °F 93% 30.34 in - West 11.5 mph - N/A   Unknown
10:15 AM 21.2 °F 11.7 °F 19.4 °F 93% 30.34 in - WSW 8.1 mph 11.5 mph N/A   Unknown
10:35 AM 23.0 °F 12.4 °F 19.4 °F 86% 30.34 in - West 10.4 mph - N/A   Unknown
10:55 AM 23.0 °F 14.7 °F 19.4 °F 86% 30.35 in - West 6.9 mph - N/A   Unknown
11:15 AM 24.8 °F 16.9 °F 19.4 °F 80% 30.34 in - WNW 6.9 mph - N/A   Unknown
11:35 AM 24.8 °F 16.9 °F 19.4 °F 80% 30.33 in - West 6.9 mph - N/A   Clear
11:55 AM 26.6 °F 22.6 °F 19.4 °F 74% 30.32 in - WSW 3.5 mph - N/A   Clear
12:15 PM 28.4 °F - 21.2 °F 74% 30.31 in - Calm Calm - N/A   Clear
12:35 PM 28.4 °F - 21.2 °F 74% 30.31 in - Calm Calm - N/A   Clear
12:55 PM 28.4 °F 24.6 °F 21.2 °F 74% 30.31 in - West 3.5 mph - N/A   Clear
1:15 PM 30.2 °F - 21.2 °F 69% 30.30 in - Calm Calm - N/A   Clear
1:35 PM 32.0 °F - 21.2 °F 64% 30.30 in - Calm Calm - N/A   Clear
2:15 PM 33.8 °F 30.8 °F 21.2 °F 60% 30.31 in - SSE 3.5 mph - N/A   Clear
2:35 PM 35.6 °F - 21.2 °F 56% 30.30 in - Calm Calm - N/A   Clear
2:55 PM 35.6 °F - 21.2 °F 56% 30.30 in - Calm Calm - N/A   Clear
3:15 PM 33.8 °F 30.8 °F 21.2 °F 60% 30.31 in - SE 3.5 mph - N/A   Clear
3:35 PM 33.8 °F - 21.2 °F 60% 30.31 in - Calm Calm - N/A   Clear
3:55 PM 33.8 °F 30.8 °F 21.2 °F 60% 30.31 in - SE 3.5 mph - N/A   Clear
4:15 PM 33.8 °F - 21.2 °F 60% 30.32 in - Calm Calm - N/A   Clear
4:35 PM 32.0 °F 27.5 °F 21.2 °F 64% 30.32 in - SSE 4.6 mph - N/A   Clear
4:55 PM 32.0 °F 27.5 °F 21.2 °F 64% 30.32 in - South 4.6 mph - N/A   Clear
5:15 PM 30.2 °F 24.3 °F 19.4 °F 64% 30.32 in - South 5.8 mph - N/A   Clear
5:35 PM 30.2 °F 22.6 °F 19.4 °F 64% 30.32 in - South 8.1 mph - N/A   Clear
6:15 PM 30.2 °F 22.6 °F 21.2 °F 69% 30.33 in - South 8.1 mph - N/A   Clear
6:35 PM 30.2 °F 21.9 °F 19.4 °F 64% 30.33 in - South 9.2 mph - N/A   Clear
6:55 PM 30.2 °F 21.9 °F 21.2 °F 69% 30.34 in - South 9.2 mph - N/A   Clear
7:15 PM 30.2 °F 22.6 °F 19.4 °F 64% 30.34 in - South 8.1 mph - N/A   Clear
7:35 PM 30.2 °F 23.4 °F 21.2 °F 69% 30.34 in - South 6.9 mph - N/A   Clear
7:55 PM 30.2 °F 23.4 °F 21.2 °F 69% 30.34 in - South 6.9 mph - N/A   Clear
8:15 PM 28.4 °F 19.7 °F 21.2 °F 74% 30.34 in - South 9.2 mph - N/A   Clear
8:35 PM 30.2 °F 24.3 °F 21.2 °F 69% 30.34 in - South 5.8 mph - N/A   Clear
8:55 PM 30.2 °F 23.4 °F 21.2 °F 69% 30.33 in - South 6.9 mph - N/A   Clear
9:15 PM 30.2 °F 21.9 °F 21.2 °F 69% 30.33 in - South 9.2 mph - N/A   Clear
9:35 PM 30.2 °F 20.8 °F 21.2 °F 69% 30.33 in - SSW 11.5 mph - N/A   Clear
9:55 PM 30.2 °F 20.2 °F 21.2 °F 69% 30.33 in - South 12.7 mph - N/A   Clear
10:15 PM 30.2 °F 19.3 °F 21.2 °F 69% 30.32 in - SSW 15.0 mph 21.9 mph N/A   Clear
10:35 PM 30.2 °F 19.8 °F 21.2 °F 69% 30.32 in - SSW 13.8 mph 18.4 mph N/A   Clear
10:55 PM 30.2 °F 20.8 °F 23.0 °F 75% 30.31 in - South 11.5 mph 16.1 mph N/A   Clear
11:15 PM 30.2 °F 21.3 °F 23.0 °F 75% 30.31 in - SSW 10.4 mph - N/A   Clear
11:35 PM 30.2 °F 20.2 °F 24.8 °F 80% 30.31 in - SSW 12.7 mph 19.6 mph N/A   Clear
11:55 PM 30.2 °F 20.2 °F 24.8 °F 80% 30.31 in - SSW 12.7 mph 21.9 mph N/A   Clear